Waarnemingen

Advertentie
Mijn weer
Vigo Peinador, Spanje (8045): temperatuur & dauwpunt: 11.11.2017 18:00:00 - 17.11.2017 18:00:00 (CET)Vigo Peinador, Spanje (8045): windsnelheid: 11.11.2017 18:00:00 - 17.11.2017 18:00:00 (CET)Vigo Peinador, Spanje (8045): windrichting: 11.11.2017 18:00:00 - 17.11.2017 18:00:00 (CET)Vigo Peinador, Spanje (8045): luchtdruk: 11.11.2017 18:00:00 - 17.11.2017 18:00:00 (CET)Vigo Peinador, Spanje (8045): zicht: 11.11.2017 18:00:00 - 17.11.2017 18:00:00 (CET)
Datum & Tijd tt [°C] td [°C] ff [km/u] ff [kn] dd ppp [hPa] vv [km]
17.11.2017 18:00:00 13,1 9,5 4 2 - 1020,4 10
17.11.2017 17:00:00 16,0 8,6 0 0 N 1020,0 10
17.11.2017 16:00:00 16,7 9,4 2 1 - 1020,0 10
17.11.2017 15:00:00 18,2 10,0 2 1 - 1020,0 10
17.11.2017 14:00:00 16,6 9,3 5 3 - 1020,6 10
17.11.2017 13:00:00 13,9 8,5 8 4 ZZW 1021,4 10
17.11.2017 12:00:00 11,5 7,0 11 6 ZZW 1022,1 10
17.11.2017 11:00:00 9,4 6,3 9 5 ZZW 1022,1 10
17.11.2017 10:00:00 7,4 6,2 9 5 ZW 1022,4 10
17.11.2017 09:00:00 7,1 5,6 9 5 ZW 1022,2 10
17.11.2017 08:00:00 7,6 5,5 4 2 - 1021,8 10
17.11.2017 07:00:00 7,3 5,6 8 4 WZW 1021,7 10
17.11.2017 06:00:00 7,4 5,7 9 5 ZW 1021,7 10
17.11.2017 05:00:00 8,3 5,9 9 5 WZW 1021,3 10
17.11.2017 04:00:00 8,7 6,1 8 4 WZW 1021,6 10
17.11.2017 03:00:00 9,1 6,2 5 3 ZW 1021,6 10
17.11.2017 02:00:00 9,2 5,9 4 2 ZW 1021,8 10
17.11.2017 01:00:00 9,0 6,1 2 1 - 1022,0 10
17.11.2017 00:00:00 9,4 6,3 2 1 - 1021,8 10
16.11.2017 23:00:00 8,5 6,3 2 1 - 1021,9 10
16.11.2017 22:00:00 8,8 6,4 2 1 - 1021,9 10
16.11.2017 21:00:00 10,1 7,0 2 1 - 1021,6 10
16.11.2017 20:00:00 10,8 7,1 5 3 N 1021,6 10
16.11.2017 19:00:00 10,7 7,1 5 3 NNW 1021,5 10
16.11.2017 18:00:00 12,0 7,4 4 2 - 1020,9 10
16.11.2017 17:00:00 15,2 7,2 8 4 W 1020,5 10
16.11.2017 16:00:00 16,1 4,8 0 0 N 1020,5 10
16.11.2017 15:00:00 17,7 6,5 0 0 N 1020,3 10
16.11.2017 14:00:00 16,9 7,6 2 1 - 1020,7 10
16.11.2017 13:00:00 14,1 6,2 5 3 ZZW 1021,5 10
16.11.2017 12:00:00 11,5 5,4 11 6 ZZW 1022,2 10
16.11.2017 11:00:00 9,7 5,1 9 5 ZZW 1022,4 10
16.11.2017 10:00:00 9,2 5,0 5 3 ZW 1022,1 10
16.11.2017 09:00:00 7,4 4,0 5 3 WZW 1021,8 10
16.11.2017 08:00:00 6,5 3,8 5 3 WZW 1021,5 10
16.11.2017 07:00:00 6,8 3,8 9 5 ZW 1021,0 10
16.11.2017 06:00:00 6,6 3,7 9 5 WZW 1021,1 10
16.11.2017 05:00:00 6,3 3,5 4 2 - 1020,9 10
16.11.2017 04:00:00 7,9 3,4 8 4 WZW 1020,8 10
16.11.2017 03:00:00 8,1 3,0 5 3 ZW 1020,5 10
16.11.2017 02:00:00 8,3 3,1 5 3 WZW 1020,4 -
16.11.2017 01:00:00 7,4 3,3 5 3 WZW 1020,7 10
16.11.2017 00:00:00 7,1 3,7 0 0 N 1020,8 10
15.11.2017 23:00:00 8,3 3,4 0 0 N 1020,5 10
15.11.2017 22:00:00 8,6 1,3 0 0 N 1020,6 10
15.11.2017 21:00:00 10,4 2,1 5 3 N 1020,3 10
15.11.2017 20:00:00 9,6 2,3 4 2 - 1020,5 10
15.11.2017 19:00:00 11,1 1,6 4 2 - 1020,2 10
15.11.2017 18:00:00 12,3 3,2 9 5 WNW 1019,7 10
15.11.2017 17:00:00 15,6 4,4 8 4 W 1019,0 10
15.11.2017 16:00:00 16,6 4,5 11 6 WZW 1019,0 10
15.11.2017 15:00:00 18,0 6,5 2 1 - 1018,9 10
15.11.2017 14:00:00 16,7 6,2 5 3 Z 1019,7 10
15.11.2017 13:00:00 15,7 6,6 2 1 - 1020,7 10
15.11.2017 12:00:00 12,9 5,8 4 2 - 1021,5 10
15.11.2017 11:00:00 11,2 5,1 4 2 - 1021,5 10
15.11.2017 10:00:00 8,6 4,0 5 3 ZW 1021,4 10
15.11.2017 09:00:00 7,2 3,8 8 4 WZW 1021,2 10
15.11.2017 08:00:00 7,2 3,5 9 5 WZW 1020,7 10
15.11.2017 07:00:00 6,7 3,5 11 6 ZW 1020,3 10
15.11.2017 06:00:00 7,7 3,5 9 5 ZW 1020,1 10
15.11.2017 05:00:00 7,5 3,9 9 5 ZW 1020,0 10
15.11.2017 04:00:00 7,6 4,2 11 6 ZW 1020,0 10
15.11.2017 03:00:00 7,8 4,7 11 6 ZW 1020,2 10
15.11.2017 02:00:00 8,0 4,6 11 6 ZW 1020,0 10
15.11.2017 01:00:00 7,7 4,5 0 0 N 1020,1 10
15.11.2017 00:00:00 8,1 5,0 0 0 N 1020,2 10
14.11.2017 23:00:00 8,4 5,5 2 1 - 1020,5 10
14.11.2017 22:00:00 7,9 4,8 0 0 N 1020,4 10
14.11.2017 21:00:00 9,1 5,0 4 2 - 1020,3 10
14.11.2017 20:00:00 8,7 4,5 2 1 - 1020,5 10
14.11.2017 19:00:00 9,2 5,4 4 2 - 1020,4 10
14.11.2017 18:00:00 11,5 4,7 11 6 W 1020,4 10
14.11.2017 17:00:00 13,5 4,6 15 8 W 1020,5 10
14.11.2017 16:00:00 16,1 4,4 4 2 - 1020,1 10
14.11.2017 15:00:00 15,3 4,3 4 2 - 1020,4 10
14.11.2017 14:00:00 14,3 3,9 5 3 - 1021,3 10
14.11.2017 13:00:00 13,1 4,2 5 3 - 1022,4 10
14.11.2017 12:00:00 11,2 3,8 9 5 ZZW 1023,4 10
14.11.2017 11:00:00 9,2 2,9 9 5 ZZW 1023,4 10
14.11.2017 10:00:00 6,8 2,2 9 5 ZZW 1023,8 10
14.11.2017 09:00:00 4,8 1,8 8 4 ZW 1023,8 10
14.11.2017 08:00:00 4,4 1,9 8 4 ZW 1023,9 10
14.11.2017 07:00:00 4,6 2,1 8 4 ZZW 1023,4 10
14.11.2017 06:00:00 5,0 2,5 11 6 ZW 1023,4 10
14.11.2017 05:00:00 5,9 2,5 5 3 WZW 1023,1 10
14.11.2017 04:00:00 6,7 2,8 4 2 - 1023,2 10
14.11.2017 03:00:00 6,3 3,2 13 7 ZZW 1023,3 10
14.11.2017 02:00:00 6,6 3,3 4 2 - 1023,3 10
14.11.2017 01:00:00 7,2 2,9 0 0 N 1023,5 10
14.11.2017 00:00:00 7,7 2,8 0 0 N 1023,6 10
13.11.2017 23:00:00 8,7 2,8 16 9 NNO 1023,4 10
13.11.2017 22:00:00 9,7 3,2 22 12 NNO 1023,2 10
13.11.2017 21:00:00 9,4 3,6 13 7 NO 1023,4 10
13.11.2017 20:00:00 10,3 3,3 21 11 NNO 1023,6 10
13.11.2017 19:00:00 10,6 4,5 15 8 NO 1023,8 10
13.11.2017 18:00:00 12,6 4,3 16 9 NO 1023,2 10
13.11.2017 17:00:00 14,9 3,8 13 7 ONO 1023,3 10
13.11.2017 16:00:00 15,4 3,6 18 10 NNO 1023,2 10
13.11.2017 15:00:00 16,3 4,6 16 9 NO 1023,6 10
13.11.2017 14:00:00 16,7 5,4 15 8 NO 1024,0 10
13.11.2017 13:00:00 16,1 4,9 15 8 NO 1024,7 10
13.11.2017 12:00:00 15,2 6,5 8 4 NO 1025,6 10
13.11.2017 11:00:00 12,5 7,7 4 2 - 1025,8 10
13.11.2017 10:00:00 10,6 7,3 4 2 - 1025,8 10
13.11.2017 09:00:00 9,2 6,6 11 6 N 1025,7 10
13.11.2017 08:00:00 9,3 6,8 9 5 N 1025,1 10
13.11.2017 07:00:00 9,5 8,3 8 4 NNO 1024,9 10
13.11.2017 06:00:00 10,0 8,8 9 5 N 1025,0 10
13.11.2017 05:00:00 9,7 9,2 2 1 - 1025,1 6
13.11.2017 04:00:00 10,6 9,4 16 9 N 1025,2 6
13.11.2017 03:00:00 10,0 9,8 11 6 N 1025,3 6
13.11.2017 02:00:00 10,1 9,9 4 2 - 1025,7 6
13.11.2017 01:00:00 10,8 10,7 5 3 NNO 1026,0 0,3
13.11.2017 00:00:00 11,1 10,9 5 3 N 1026,0 0,1
12.11.2017 23:00:00 11,4 11,2 4 2 - 1025,8 0,2
12.11.2017 22:00:00 11,6 11,4 4 2 - 1025,8 -
12.11.2017 21:00:00 11,5 11,3 0 0 N 1025,9 -
12.11.2017 20:00:00 11,9 11,6 4 2 - 1025,6 0,4
12.11.2017 19:00:00 12,3 11,9 4 2 - 1025,8 0,7
12.11.2017 18:00:00 13,0 11,8 8 4 W 1025,4 1,0
12.11.2017 17:00:00 14,2 11,2 9 5 WZW 1025,2 10
12.11.2017 16:00:00 14,8 10,4 0 0 N 1025,6 10
12.11.2017 15:00:00 15,4 10,2 2 1 - 1025,8 10
12.11.2017 14:00:00 15,5 10,0 9 5 NO 1026,4 10
12.11.2017 13:00:00 15,5 9,4 4 2 - 1026,6 10
12.11.2017 12:00:00 14,1 10,2 2 1 - 1027,4 10
12.11.2017 11:00:00 12,4 9,8 0 0 N 1027,8 10
12.11.2017 10:00:00 11,3 9,6 0 0 N 1028,1 8
12.11.2017 09:00:00 11,2 8,8 2 1 - 1028,1 10
12.11.2017 08:00:00 10,5 8,8 0 0 N 1028,1 10
12.11.2017 07:00:00 11,0 8,4 9 5 N 1027,7 10
12.11.2017 06:00:00 10,2 8,3 4 2 - 1027,9 10
12.11.2017 05:00:00 9,9 7,8 5 3 N 1028,0 10
12.11.2017 04:00:00 9,0 7,2 5 3 N 1028,4 10
12.11.2017 03:00:00 9,0 7,0 9 5 NNO 1028,5 10
12.11.2017 02:00:00 9,4 7,3 4 2 - 1028,7 10
12.11.2017 01:00:00 9,8 7,7 9 5 N 1029,0 10
12.11.2017 00:00:00 9,8 7,9 9 5 N 1029,2 10
11.11.2017 23:00:00 10,6 8,5 18 10 N 1029,3 10
11.11.2017 22:00:00 10,7 7,8 11 6 N 1029,4 10
11.11.2017 21:00:00 11,4 8,1 2 1 - 1029,4 10
11.11.2017 20:00:00 11,8 8,1 5 3 N 1029,2 10
11.11.2017 19:00:00 12,4 8,8 11 6 N 1029,0 10
11.11.2017 18:00:00 13,7 8,9 11 6 N 1029,0 10

tt = temperatuur
td = dauwpunt
ff = windsnelheid
dd = windrichting
ppp = luchtdruk
vv = zicht

Weerstations in de omgeving